Theta_e
324 324 323 323 324 327 327 326 325 324 324 323 323 321 321 319 319 325 328 330 338 341 341 344 342 347 353 353 354 352 352 354 353 355 354 354 354 353 354 354 354 354 353 351 351 351 351 352 353 352 352 352 353 352 352 352 352 352 352 352 353 353 354 354 353 354 354 354 354 353 354 353 352 352 353 353 352 352 353 353 353 352 353 353 353 353
324 323 323 324 326 327 327 326 325 324 324 323 322 320 319 319 320 324 328 329 336 341 340 344 343 346 353 353 353 352 353 354 353 354 354 354 353 353 353 353 353 353 352 351 350 350 350 351 352 352 352 352 352 352 352 352 351 351 352 351 352 353 353 354 353 353 353 354 354 354 354 353 353 353 352 352 352 353 354 354 353 352 353 353 352 352
322 322 323 325 326 326 328 328 326 325 324 323 322 319 317 320 322 324 329 329 333 338 342 347 342 343 351 352 352 353 353 353 352 353 353 353 353 353 353 353 353 353 353 352 350 349 349 349 351 351 351 351 351 352 351 352 351 351 351 351 352 352 353 354 353 353 353 353 354 354 354 353 353 353 353 353 353 354 354 354 352 351 352 353 353 353
320 321 325 325 325 326 326 326 326 325 325 323 322 318 316 320 320 319 326 330 333 335 341 346 342 343 348 350 353 352 352 353 351 351 352 352 352 352 352 352 352 353 353 352 351 349 348 348 349 350 350 351 351 351 351 351 352 351 351 351 351 352 352 353 353 353 352 353 354 354 354 353 352 353 353 353 354 354 354 353 353 352 353 353 353 353
322 323 324 324 325 326 325 325 325 324 322 323 323 319 318 321 322 321 326 331 333 334 340 342 334 337 343 346 353 353 351 353 351 352 352 351 352 351 350 351 351 352 351 351 351 349 348 347 348 349 350 350 350 351 351 351 351 351 351 351 351 351 352 352 353 353 352 352 353 354 353 353 353 353 353 353 353 353 354 354 354 353 353 353 353 353
324 324 323 323 324 325 324 324 324 323 320 320 323 323 322 323 324 326 327 327 324 323 336 339 325 332 343 341 349 352 351 353 351 352 353 351 352 350 351 351 350 351 350 350 350 349 348 347 347 349 350 350 350 350 350 351 351 351 351 350 351 351 352 352 352 352 352 352 352 352 353 353 353 353 353 354 354 354 354 355 354 352 352 352 352 353
323 324 324 324 323 323 323 322 323 324 319 317 322 325 325 326 325 326 325 322 319 320 334 339 328 331 338 336 345 351 351 353 350 351 352 351 352 351 350 351 350 351 349 350 349 348 348 347 347 348 349 350 350 350 351 351 351 351 351 351 351 351 351 352 352 352 352 352 353 352 353 353 353 353 353 353 354 354 354 354 353 352 352 352 353 353
324 323 323 324 324 322 322 320 323 324 319 317 323 325 325 326 325 325 323 320 323 325 328 335 333 328 329 335 341 347 349 351 350 350 350 350 351 350 350 349 350 350 349 349 349 349 348 347 347 347 349 350 351 351 350 350 351 351 351 350 351 351 351 352 352 352 352 352 353 353 353 353 353 353 353 353 354 354 354 354 353 353 353 353 353 354
324 323 322 324 323 322 321 321 323 324 321 320 324 325 325 326 326 327 325 320 324 323 316 324 330 326 332 347 346 342 346 347 348 348 348 349 349 350 350 349 350 350 349 349 348 349 349 347 347 347 348 350 351 351 350 351 351 351 351 351 351 351 351 352 352 352 352 352 353 353 353 353 353 353 352 353 353 353 353 353 353 353 352 353 353 354
324 323 323 322 322 322 321 323 324 322 322 322 323 326 325 325 327 327 326 321 320 321 315 318 323 320 328 345 345 339 340 342 346 346 345 347 347 348 349 348 349 349 349 349 348 348 348 347 347 347 348 349 350 351 351 351 351 351 351 351 351 351 351 352 352 352 352 352 352 353 353 353 353 353 352 352 353 352 352 352 352 352 352 352 352 353
324 324 324 324 323 323 323 323 323 322 323 322 322 324 322 323 326 328 330 325 318 318 317 317 321 319 320 331 340 340 340 341 343 343 344 346 345 346 348 347 348 349 349 349 347 348 348 348 348 347 348 349 349 351 352 352 352 351 351 351 352 351 352 352 352 352 352 352 352 352 353 353 353 353 352 352 352 352 352 352 352 352 352 352 352 354
323 323 324 326 324 324 324 322 322 322 321 322 322 322 318 318 319 319 321 322 317 316 319 319 321 319 315 324 340 343 342 343 342 341 343 344 344 344 345 346 347 348 349 349 348 348 348 348 348 348 348 348 349 350 351 352 352 352 352 352 352 352 352 352 353 353 353 352 352 352 352 353 352 353 352 352 352 352 352 352 352 352 352 353 353 354
321 322 323 324 325 325 324 322 322 322 321 322 321 319 315 314 315 315 314 317 317 319 326 325 319 318 317 326 342 347 343 343 342 342 341 341 342 343 343 345 346 347 348 348 348 348 348 349 349 349 348 348 349 349 351 352 353 353 352 352 352 352 353 353 353 353 353 353 353 353 353 353 353 353 352 352 352 352 352 352 352 353 353 353 354 354
317 320 321 321 323 325 324 321 318 318 321 320 316 315 314 313 315 315 316 318 319 320 326 326 321 319 320 329 342 344 343 343 342 342 341 341 341 341 342 343 343 346 347 348 349 348 348 349 349 348 348 349 349 349 350 351 352 353 353 353 352 353 353 353 354 354 354 354 353 353 354 353 353 353 353 353 352 352 352 352 353 353 354 354 354 354
314 317 321 320 321 324 325 323 320 322 322 320 321 319 313 315 319 318 317 319 320 321 322 321 322 320 319 332 345 341 341 344 342 342 342 342 341 340 340 341 343 345 347 348 348 348 348 349 348 348 348 348 349 349 350 351 352 353 353 353 353 353 353 353 354 354 355 355 354 354 354 354 354 354 354 354 353 353 352 352 353 353 354 354 353 353
313 315 322 322 321 324 324 323 324 323 320 319 323 318 312 319 324 319 321 325 321 320 320 319 325 330 330 339 345 338 339 343 342 343 343 343 343 342 340 340 341 344 345 347 349 348 349 348 347 347 347 348 349 349 350 350 351 352 353 354 353 353 353 353 354 354 355 355 355 355 355 355 355 355 355 355 354 354 353 353 354 354 354 353 351 352
313 315 322 323 323 325 323 324 324 321 320 320 317 314 317 325 322 314 317 322 318 316 319 319 323 329 331 335 339 337 339 343 342 343 343 342 345 344 343 341 340 342 344 346 349 349 349 348 347 347 347 348 349 348 350 350 351 352 352 353 354 353 354 354 354 354 354 355 355 355 356 355 356 356 355 355 354 354 354 353 353 354 353 352 352 352
316 315 323 323 321 323 322 324 324 322 323 320 314 315 322 324 321 317 313 313 313 314 318 318 317 318 320 330 343 343 341 343 343 344 343 343 344 345 345 343 340 341 343 345 348 348 349 349 348 347 347 348 348 349 349 350 350 352 352 353 353 353 354 354 354 355 354 355 355 355 356 356 355 356 355 355 355 354 354 354 354 353 353 353 352 353
319 313 320 325 321 323 324 322 320 323 323 320 318 321 322 317 314 316 315 313 313 313 316 319 320 318 318 327 339 338 341 346 344 344 344 342 344 344 343 344 342 341 341 342 346 348 349 349 348 347 347 347 348 348 349 349 350 351 351 352 353 353 354 354 354 355 355 354 355 355 355 356 356 356 355 355 355 355 354 354 354 353 353 353 353 353
322 314 315 324 324 321 324 321 316 318 322 322 322 321 323 320 314 314 317 316 315 314 315 318 318 315 321 334 341 339 345 347 342 345 346 342 343 343 342 343 343 342 342 341 343 346 347 348 347 347 347 347 348 349 349 349 350 351 351 352 352 353 354 354 354 355 355 355 355 355 355 355 356 355 355 355 355 355 355 354 354 354 353 353 353 353
321 318 313 320 326 320 319 321 318 318 320 318 317 315 316 319 317 316 317 316 317 316 317 317 313 315 332 346 344 343 349 348 345 345 345 342 343 342 342 343 342 342 343 341 342 343 345 346 347 347 347 348 348 348 349 350 350 350 351 352 352 353 353 354 355 355 356 356 355 355 355 355 355 355 356 355 356 355 355 355 354 354 354 353 353 353
321 320 314 315 318 315 318 324 324 323 323 320 318 315 314 316 316 314 313 315 316 316 320 320 311 316 338 344 338 345 351 348 346 345 344 344 342 342 342 341 343 343 343 343 342 342 343 345 347 347 347 348 348 349 349 350 350 350 351 352 352 353 354 354 354 355 355 356 356 356 355 355 355 355 356 356 356 356 356 355 355 354 354 354 354 353
325 324 317 313 315 318 322 326 324 323 325 324 322 320 320 319 316 311 310 315 316 315 321 322 313 318 338 341 336 344 348 344 343 342 344 344 341 343 343 341 343 343 343 343 342 342 343 344 345 346 347 348 348 348 349 350 351 351 351 352 352 353 354 354 354 355 355 356 356 356 356 356 356 356 356 356 356 356 356 355 355 355 354 354 354 354
327 326 320 317 318 321 323 325 325 325 325 323 322 323 321 320 318 316 318 322 318 313 317 319 312 317 338 345 338 341 349 345 339 338 341 342 341 342 343 342 344 343 343 344 343 343 344 343 345 348 349 349 348 348 350 350 351 351 351 352 353 353 354 354 355 355 355 356 356 356 356 356 356 356 356 356 356 356 356 356 355 355 355 355 354 354
326 329 325 319 317 317 319 321 320 321 322 321 323 324 321 322 321 320 325 324 317 314 317 316 311 319 347 356 342 339 344 341 340 340 340 341 342 342 342 344 345 345 344 344 343 345 345 345 347 349 351 350 348 349 350 351 351 352 352 353 353 353 354 354 355 355 356 356 356 356 357 356 357 356 356 356 356 356 356 356 356 355 355 355 354 354
325 331 327 321 319 317 317 319 321 324 323 320 324 324 322 324 321 317 318 316 315 319 318 313 315 328 352 353 338 337 339 336 340 344 340 340 341 341 342 343 345 346 345 345 345 345 346 348 349 349 351 350 348 349 350 351 352 352 352 353 353 354 354 354 355 355 356 356 356 357 357 357 357 357 357 357 356 357 357 356 356 356 355 355 355 354
325 331 329 325 326 325 323 324 328 330 323 316 319 322 321 324 322 319 315 311 320 326 316 319 331 331 331 337 338 339 338 334 337 342 343 345 342 341 342 343 344 345 344 344 345 345 346 350 351 350 350 349 348 349 350 351 352 352 353 353 353 354 355 355 356 356 356 357 357 357 357 357 357 357 357 357 357 357 357 357 356 356 356 355 355 354
322 325 326 326 327 327 325 325 325 325 321 316 319 320 320 324 322 319 314 315 328 323 311 328 349 328 323 343 348 341 340 340 337 335 338 343 344 341 340 342 344 344 344 344 344 346 348 350 351 351 350 348 347 348 350 351 352 352 353 353 354 355 356 356 356 357 357 358 357 358 358 357 358 358 357 357 357 357 357 357 357 357 356 355 355 354
319 322 325 324 323 321 321 323 323 324 324 321 320 320 320 324 321 317 317 323 330 318 311 332 347 328 331 352 349 345 347 340 334 334 338 345 351 349 343 341 343 342 343 344 344 346 349 349 350 351 350 350 348 348 349 351 352 353 353 353 354 355 356 357 357 357 358 358 358 358 358 358 358 358 358 358 358 358 358 357 357 357 356 356 355 355
319 325 325 319 319 321 320 322 324 324 324 321 321 322 322 323 321 320 321 324 327 320 319 337 342 331 335 343 341 345 346 337 334 340 348 354 362 364 353 342 342 341 341 343 344 346 348 348 350 351 350 352 350 349 349 350 352 353 352 353 354 354 356 357 358 358 358 358 359 359 358 359 359 358 359 358 358 358 358 358 357 357 357 356 356 355
319 324 322 317 320 322 320 322 323 322 324 323 321 322 322 323 322 321 321 324 325 322 323 336 338 334 336 340 339 338 338 336 335 342 350 352 364 378 367 347 341 341 342 343 343 345 347 348 349 351 352 353 351 349 349 350 352 353 352 353 353 354 356 357 358 359 359 359 359 359 359 359 359 359 359 358 359 358 358 358 358 357 357 356 356 355
317 320 319 318 321 321 320 322 321 321 325 324 321 322 321 320 320 320 322 324 323 322 324 326 325 329 337 339 336 338 341 340 340 349 358 358 364 377 373 355 344 341 342 344 344 345 347 348 349 351 351 351 349 349 349 350 351 352 352 353 353 354 356 357 358 359 359 360 360 360 360 359 359 359 359 359 359 359 358 358 358 358 357 356 356 355
317 319 318 319 322 323 320 319 320 323 326 322 320 323 322 321 323 321 323 327 326 324 323 319 320 327 334 334 333 337 340 338 343 352 358 361 367 374 372 361 350 345 344 344 345 345 345 346 347 350 350 348 347 348 349 350 351 352 353 353 353 354 355 357 358 358 359 360 359 360 360 360 360 359 359 359 359 358 359 358 358 358 357 356 356 355
318 320 319 319 322 322 319 318 323 329 327 323 324 327 325 324 325 321 321 324 324 324 324 322 324 328 329 330 331 333 335 338 345 351 351 351 358 369 373 367 358 354 351 348 348 346 345 347 347 347 347 346 346 348 349 350 351 352 353 353 353 354 355 356 358 358 359 359 359 360 360 360 360 360 359 359 359 358 359 358 358 358 357 356 356 355
317 319 318 318 321 321 320 322 331 337 334 328 328 330 327 323 323 329 339 346 343 343 339 331 329 331 331 331 334 344 355 353 350 356 358 354 354 359 361 364 367 363 358 356 354 348 346 348 349 349 347 345 346 348 348 349 351 351 352 353 353 353 354 356 357 357 358 359 359 360 360 360 360 360 360 359 358 359 358 358 358 358 357 357 356 355
315 317 319 319 320 321 323 327 334 337 334 329 329 334 339 340 333 330 339 351 359 363 358 342 341 350 348 341 345 357 365 360 356 360 361 358 357 357 351 350 354 354 353 359 362 359 355 349 346 347 347 345 346 348 348 349 350 350 352 353 353 354 354 355 356 357 358 358 359 360 360 360 360 360 360 359 359 359 358 358 358 357 357 357 355 355
314 316 319 320 320 322 324 328 332 331 329 334 339 340 341 345 343 334 330 341 359 363 360 353 356 366 357 346 349 354 354 355 359 359 356 356 357 358 354 349 345 345 348 355 360 356 350 345 344 345 345 346 347 348 348 349 349 350 351 352 353 354 354 354 355 356 357 358 358 359 359 360 360 360 360 359 359 358 358 358 358 357 357 356 355 355
313 315 318 320 323 325 327 331 335 333 333 338 340 338 336 337 340 338 334 341 359 361 358 359 359 359 351 341 344 350 351 355 362 361 358 356 355 355 356 353 349 348 349 354 361 358 347 342 344 345 345 347 348 347 348 349 349 350 351 351 352 353 353 354 354 355 356 357 358 359 359 360 360 360 359 359 359 359 358 358 358 357 357 356 355 355
313 315 318 319 323 329 333 337 338 336 339 342 338 336 336 335 339 340 332 336 354 362 361 364 363 360 354 341 339 346 351 357 369 372 364 357 355 353 352 352 350 349 348 349 356 360 354 347 343 345 347 347 348 348 349 349 350 351 351 351 352 353 353 354 354 354 355 356 357 358 359 359 360 360 360 359 359 359 359 358 358 358 357 356 356 355
317 324 329 328 329 333 336 338 338 337 342 343 337 335 336 336 339 334 325 334 356 363 360 364 366 364 362 353 348 355 360 358 366 368 357 352 353 350 348 350 349 348 349 347 347 352 351 348 347 347 346 345 346 349 349 349 351 351 351 352 352 352 353 353 353 354 354 355 356 357 358 359 360 360 360 359 359 359 359 359 358 357 357 356 356 355
328 337 341 339 339 338 337 338 338 338 341 340 335 335 337 338 334 325 327 342 359 362 358 359 360 362 365 364 363 366 364 357 355 354 349 349 351 348 346 348 346 345 347 346 345 349 349 348 350 349 347 346 347 347 347 350 351 351 352 353 352 352 353 353 354 354 354 354 355 356 357 358 359 360 360 359 359 359 358 359 358 358 357 357 356 355
335 339 342 343 341 338 339 340 338 337 338 337 335 336 338 340 335 332 339 349 355 356 357 355 355 357 359 360 360 357 353 350 349 348 347 347 348 348 348 347 346 347 348 346 346 347 347 348 350 352 353 354 353 350 348 349 351 351 352 353 352 353 354 353 354 354 353 354 354 354 356 357 358 359 359 359 359 359 358 358 358 358 358 357 356 355
333 335 339 342 340 336 338 339 337 339 339 336 336 340 342 343 342 340 345 352 352 352 352 351 352 353 351 351 351 348 347 348 346 345 345 344 344 346 346 346 347 348 349 349 348 345 345 349 350 350 353 356 357 357 353 350 351 351 351 352 353 354 354 354 354 354 354 354 354 354 355 356 357 358 359 359 359 358 358 358 358 358 358 357 356 355
330 333 337 341 341 339 339 338 338 341 340 336 337 341 340 338 336 336 342 349 349 348 347 348 348 347 346 347 347 345 345 346 345 344 345 344 342 343 344 344 345 346 346 347 347 344 344 347 348 349 352 354 356 359 358 354 352 351 350 352 353 353 354 354 354 354 354 354 354 354 354 355 356 357 358 359 359 358 358 358 358 358 358 357 356 355
328 334 341 343 341 339 340 341 342 342 338 335 337 338 336 333 331 330 335 339 341 341 342 344 344 343 342 343 343 343 344 343 342 343 343 343 343 343 343 343 343 344 345 345 344 344 344 345 348 349 350 352 353 355 356 357 356 353 352 353 353 354 355 353 354 354 354 354 354 354 354 354 355 356 357 358 358 358 358 358 358 357 357 356 355 353
326 332 341 345 341 338 339 342 342 340 336 335 335 335 335 334 331 330 331 332 333 334 335 337 340 340 339 339 340 341 341 339 339 340 340 342 343 343 343 344 344 344 344 345 345 345 344 345 348 348 348 350 352 353 354 355 355 355 356 356 356 355 355 354 353 353 353 354 354 353 353 353 354 355 357 357 358 358 358 358 358 357 356 355 353 351
325 328 336 341 339 337 339 340 339 337 334 334 334 335 335 334 333 332 333 333 332 331 331 332 335 335 335 336 337 338 337 337 338 339 339 340 342 343 344 345 345 345 345 345 346 345 345 346 348 348 347 347 348 349 351 353 353 354 357 358 359 358 356 354 354 353 352 353 353 353 354 353 353 354 356 356 358 358 358 359 358 356 354 353 351 350
325 327 331 336 337 338 338 338 338 336 333 333 336 336 335 335 334 332 333 333 333 332 331 331 331 332 333 334 334 335 335 336 336 338 338 339 340 341 341 342 344 344 344 344 345 346 346 347 348 348 347 346 346 346 347 348 350 352 354 356 357 357 357 356 354 353 353 353 353 353 353 353 353 354 355 356 358 358 358 358 357 355 353 352 352 350
320 323 329 336 337 338 338 335 335 336 334 332 335 336 336 336 335 332 332 332 331 331 332 331 330 330 332 333 333 333 335 335 336 336 337 337 337 338 339 341 342 342 342 343 345 346 347 348 348 348 348 346 346 346 346 346 347 348 350 352 354 354 354 355 354 354 354 354 354 354 354 354 355 355 355 356 358 358 358 358 357 355 353 353 353 352
318 323 330 335 337 338 338 336 336 338 337 334 334 336 335 334 333 332 332 333 332 331 331 330 329 329 330 331 332 333 334 335 335 335 336 337 337 338 338 340 341 341 340 342 343 344 346 347 347 347 347 346 345 345 346 346 346 347 348 349 350 351 352 352 353 353 353 353 353 353 353 353 353 354 355 355 355 353 351 351 353 353 352 351 351 351
321 325 328 332 337 338 337 336 336 339 338 335 334 335 335 334 333 333 333 333 332 331 330 329 329 330 330 330 330 332 334 334 334 335 336 336 336 337 337 337 340 341 341 341 342 343 344 345 345 345 344 344 345 345 345 345 345 345 346 347 348 349 350 351 351 352 352 352 351 352 352 350 350 350 352 351 350 347 344 344 346 347 348 349 348 350
Wind_Speed
6 6 8 9 8 8 8 7 8 8 8 8 4 5 6 5 8 7 4 7 5 6 9 13 14 11 13 16 17 17 15 14 14 14 13 14 14 14 15 15 16 18 17 19 24 28 31 32 32 31 31 32 33 33 34 35 36 37 37 36 36 35 36 36 36 35 35 34 32 32 33 34 34 34 32 31 32 30 28 28 25 22 22 24 23 23
5 10 10 8 7 6 7 6 6 8 9 9 6 6 6 5 10 8 4 7 3 5 7 9 9 10 14 17 16 16 16 16 17 17 17 18 16 14 16 18 18 16 12 14 18 23 28 30 32 32 31 32 34 34 37 38 39 39 38 38 37 36 36 37 37 36 36 36 35 34 33 34 34 33 33 32 32 31 28 28 27 24 23 24 24 22
6 10 9 7 6 6 6 6 6 7 8 8 6 5 6 6 7 8 6 7 4 5 5 5 6 8 11 15 16 18 19 18 18 21 20 20 18 15 16 17 17 14 11 13 16 19 26 30 32 33 32 34 37 37 38 39 38 38 38 38 37 37 38 38 38 38 38 37 36 35 33 33 33 32 33 33 31 29 28 27 27 26 25 25 25 23
7 7 8 8 7 7 7 7 6 6 6 6 6 5 7 7 4 5 5 4 3 4 5 7 6 4 6 8 12 17 18 15 16 19 18 18 19 20 20 19 17 17 15 16 17 17 22 27 30 31 33 35 36 35 36 36 37 38 39 40 39 40 40 40 40 40 39 37 36 35 33 32 32 31 32 32 30 29 29 28 27 27 26 26 26 25
8 6 6 10 8 8 8 8 7 6 5 7 7 7 9 8 6 7 5 4 3 4 3 4 3 2 7 8 10 12 13 11 12 14 14 15 17 18 19 19 18 19 19 18 19 18 18 22 27 33 35 35 34 35 37 39 41 41 42 43 42 41 40 40 40 40 38 36 35 33 30 29 29 29 28 30 30 31 31 31 30 28 27 26 26 25
11 6 6 10 9 9 9 9 8 7 5 7 9 11 11 8 7 7 4 5 4 5 3 5 3 4 6 13 13 11 11 12 11 14 17 16 15 14 14 16 17 18 18 19 21 21 19 22 29 33 34 33 34 37 41 43 45 44 43 43 42 41 40 40 40 39 38 36 35 33 30 28 28 27 28 30 31 31 32 33 31 29 29 28 26 25
7 6 7 9 10 11 11 10 10 8 5 8 10 8 7 7 7 8 4 2 3 5 5 4 5 5 4 10 14 12 14 17 14 15 19 16 15 15 14 15 16 16 16 16 18 20 20 22 25 28 33 35 36 40 42 43 44 43 41 41 42 42 40 40 40 39 39 38 37 36 35 33 31 29 30 31 31 32 33 33 32 30 30 30 28 26
7 10 9 10 10 11 12 10 10 8 6 9 7 3 4 6 7 9 6 4 5 5 6 3 5 3 4 8 14 16 16 17 16 17 18 16 16 17 16 16 17 18 17 16 16 18 19 21 23 28 34 39 41 43 42 40 41 42 41 41 43 42 41 40 40 41 41 40 38 38 36 34 34 33 32 30 30 31 31 31 31 30 29 29 28 27
8 12 13 14 11 9 9 10 9 9 10 10 3 3 6 6 7 7 5 5 5 4 8 7 5 4 5 5 11 15 16 17 18 19 19 18 19 19 19 18 19 19 19 18 18 19 20 22 28 33 37 42 45 44 42 42 43 44 44 43 43 43 41 41 41 42 43 43 40 38 36 35 35 34 32 29 29 29 30 30 30 29 29 29 28 28
6 13 16 14 11 9 7 8 9 12 13 7 3 6 7 4 4 5 5 5 3 4 9 11 6 5 7 4 7 11 14 17 18 17 18 20 21 20 19 19 19 18 17 18 18 19 21 27 35 39 39 41 42 41 43 44 43 43 43 42 42 43 42 42 42 43 44 44 41 39 38 37 35 33 30 28 28 29 30 30 31 30 30 30 30 30
3 6 11 11 10 9 7 7 10 14 13 3 2 7 8 7 4 1 2 3 3 6 10 13 9 7 6 6 6 9 14 18 16 15 16 18 20 20 19 19 19 17 16 17 18 18 21 29 36 38 37 38 39 39 40 40 40 40 41 41 42 43 43 43 43 45 45 45 43 41 40 40 37 33 29 27 28 29 30 31 32 32 32 32 31 31
5 3 5 5 8 9 7 8 9 11 12 5 3 5 5 6 4 4 2 3 5 9 7 10 9 8 8 7 5 10 16 20 18 17 19 21 22 21 20 19 19 18 17 17 17 17 18 21 26 28 31 34 36 35 36 37 38 39 39 41 41 42 43 43 44 45 46 46 44 43 42 41 39 36 32 30 30 31 31 32 33 33 32 32 32 31
7 8 5 4 6 10 9 7 8 8 9 8 5 5 4 4 3 5 5 2 7 8 5 8 8 7 9 8 8 12 15 19 19 18 21 24 24 22 21 20 18 17 17 17 17 16 16 17 18 21 27 31 32 34 36 37 38 38 39 41 41 42 43 43 43 45 46 46 46 45 43 42 40 37 35 34 33 33 33 34 33 32 32 32 32 32
4 6 7 8 5 8 11 9 7 7 7 9 8 6 6 5 5 7 6 4 6 6 4 6 6 4 6 6 10 14 15 19 20 20 21 23 24 24 23 21 18 17 17 17 17 16 16 17 17 20 27 31 33 37 38 38 39 38 39 41 42 43 43 43 43 45 46 47 47 46 44 42 39 38 36 35 35 34 34 34 34 34 34 33 34 34
7 5 8 12 7 8 13 12 10 6 5 8 7 6 7 6 5 5 4 4 5 6 4 2 4 5 5 6 10 14 16 18 19 20 22 21 22 22 20 17 17 17 17 16 16 17 18 19 20 22 28 31 34 37 39 39 40 39 39 42 43 43 43 43 43 44 45 46 47 45 43 41 40 38 37 36 36 35 35 35 35 35 35 35 35 35
9 9 7 10 7 10 12 11 9 7 4 6 5 6 9 7 5 3 4 5 3 4 4 2 4 5 5 5 6 11 14 16 18 20 20 19 18 16 13 13 15 16 16 16 16 18 20 19 20 23 28 31 34 36 38 39 40 40 40 41 43 43 44 45 44 45 46 46 45 44 43 42 40 38 36 35 35 36 36 36 35 36 36 36 36 35
6 8 5 5 5 10 13 10 10 10 6 3 5 8 7 6 6 6 6 4 1 4 5 4 4 5 3 6 5 7 11 12 15 16 17 18 16 14 12 13 16 16 16 17 17 19 20 19 19 24 28 31 32 34 37 40 42 43 42 41 42 43 43 44 46 46 46 45 44 43 43 43 41 40 37 36 36 36 36 36 36 36 36 36 35 34
5 6 4 8 10 12 12 9 8 10 9 5 5 8 4 3 6 5 3 5 5 6 5 3 6 5 3 6 4 5 8 10 11 13 16 17 14 12 12 14 16 17 18 19 19 18 18 18 19 24 29 33 35 37 40 43 44 43 43 42 43 43 44 46 47 46 46 45 43 42 43 43 42 41 39 37 37 36 35 35 36 36 35 35 35 34
5 6 6 9 13 10 7 8 6 7 10 8 6 7 6 4 7 5 4 6 7 6 5 3 5 6 6 6 4 6 9 10 11 11 13 16 14 12 13 14 16 17 17 16 17 16 16 18 19 23 30 34 36 38 41 43 42 41 42 43 43 45 46 46 46 46 46 45 44 42 42 43 43 42 39 38 36 36 36 36 36 36 35 35 35 35
4 4 7 6 10 9 5 7 7 7 10 7 3 5 5 5 6 6 4 4 4 5 5 3 4 6 7 6 7 10 11 12 12 11 12 15 14 13 13 14 15 16 16 15 16 17 18 19 21 26 32 34 37 39 39 38 37 39 41 41 41 43 43 43 43 44 45 45 44 41 41 42 43 42 40 38 37 37 37 37 37 37 36 35 35 35
3 4 6 5 5 7 4 5 10 11 10 7 5 7 7 3 3 5 4 3 4 4 4 3 6 7 5 5 9 11 11 12 12 11 12 14 15 14 15 15 15 16 16 16 16 17 19 19 21 27 34 35 37 37 35 35 36 39 39 39 41 41 40 41 43 44 44 44 43 41 40 41 42 41 39 38 37 38 38 37 37 37 36 35 35 36
3 3 6 7 5 5 5 7 12 15 13 10 8 8 9 5 4 5 6 4 4 5 5 5 8 9 5 5 8 10 10 10 11 11 11 12 15 15 15 16 16 16 16 17 18 18 19 19 19 24 30 32 31 31 32 34 36 37 37 39 40 40 40 43 44 45 44 42 41 41 41 41 41 40 39 38 38 39 39 38 37 37 35 35 35 36
4 3 6 8 8 6 7 9 12 15 15 12 9 8 7 5 5 6 8 5 4 4 2 3 6 9 5 7 9 9 10 9 9 11 11 11 13 14 15 17 17 17 17 17 18 17 17 18 18 20 24 27 29 30 33 34 34 36 38 39 38 39 42 45 45 45 43 42 41 41 41 40 40 40 39 39 39 40 40 38 37 36 35 36 36 36
7 3 2 5 6 5 6 7 6 7 10 10 10 9 8 7 7 8 6 4 5 4 2 2 7 7 4 6 8 9 10 10 8 9 10 10 9 10 14 15 14 15 16 16 17 16 16 15 15 15 17 20 25 29 31 33 35 36 37 38 38 41 44 45 43 42 41 41 40 39 40 40 40 39 38 39 40 41 40 38 37 36 36 36 35 35
5 3 1 2 5 6 5 5 5 4 5 5 6 10 11 12 11 7 2 3 4 6 7 6 7 6 4 3 5 8 9 9 8 8 9 9 8 9 11 12 12 13 14 15 15 15 16 14 13 14 14 16 22 27 30 32 34 35 36 38 40 42 43 43 41 40 40 40 38 38 39 40 39 39 39 40 41 41 40 38 36 36 36 36 35 35
2 2 2 2 6 7 5 5 6 5 4 3 5 10 14 17 17 10 4 4 6 6 8 8 7 6 5 3 4 8 9 9 9 8 8 9 9 10 10 11 12 12 13 16 16 16 16 14 14 15 14 15 21 26 28 31 33 35 37 40 41 41 41 41 41 39 39 39 38 38 39 40 40 40 40 40 40 40 39 37 36 36 36 37 36 35
2 1 3 4 5 5 4 6 8 5 5 10 11 11 13 18 19 14 8 8 6 5 6 8 6 3 4 3 5 9 9 9 9 8 8 9 9 10 10 11 11 12 14 16 16 15 14 13 14 16 16 17 22 27 29 30 33 34 35 38 40 40 40 40 40 39 39 39 39 39 40 41 42 41 40 40 40 39 38 37 36 36 36 37 36 36
1 2 5 5 7 7 7 12 14 13 11 13 15 14 14 15 17 17 15 9 8 7 9 7 7 6 7 7 8 10 9 8 10 10 9 8 9 9 9 10 10 11 13 13 14 14 14 14 15 16 16 17 21 26 28 30 33 34 35 37 38 38 39 39 39 39 40 40 39 40 42 43 42 41 40 39 39 38 37 36 36 36 36 36 36 37
1 3 4 8 13 13 12 14 14 13 13 12 13 17 17 15 16 20 18 11 11 11 12 8 10 9 8 8 9 10 10 10 11 9 5 4 6 8 9 10 11 12 14 15 15 15 15 15 15 16 17 17 18 22 26 28 31 33 33 35 36 38 40 40 40 40 40 39 40 42 43 42 40 40 39 37 37 38 37 36 36 36 36 36 37 38
1 3 5 10 15 15 14 13 12 11 11 12 13 16 18 18 19 20 18 14 15 17 13 9 11 12 9 9 10 10 10 8 5 3 3 6 7 8 9 11 13 13 15 15 16 15 15 16 16 16 16 16 16 20 24 26 30 32 34 35 36 38 39 38 39 39 39 40 42 42 41 40 39 38 37 37 37 37 37 36 36 36 36 37 37 38
1 2 7 9 10 12 12 11 12 13 12 11 13 14 17 20 21 21 19 14 12 14 12 8 10 10 8 8 9 9 8 4 3 4 6 9 9 7 8 10 12 13 14 14 15 15 15 16 15 14 15 16 18 21 25 28 31 33 34 35 36 38 38 38 38 38 39 41 42 39 38 38 38 37 37 37 37 37 36 35 35 36 37 38 39 39
1 1 5 6 6 8 8 10 16 19 15 11 13 16 17 18 18 17 15 12 12 12 11 9 8 7 8 8 7 7 6 5 7 8 7 8 7 7 8 10 11 12 13 13 14 14 15 16 16 15 16 17 19 22 26 29 29 30 32 34 37 38 37 38 38 39 40 41 38 36 37 38 37 37 37 37 37 37 35 35 35 36 38 39 40 40
2 1 2 4 4 6 9 12 15 15 12 10 13 16 16 14 13 12 11 11 13 13 12 12 12 9 9 8 6 6 9 9 8 6 6 7 7 6 7 8 9 10 10 11 12 14 15 15 16 17 18 18 20 26 31 32 31 31 35 38 38 36 35 37 38 38 39 38 36 36 37 37 36 37 37 38 38 36 35 35 37 39 40 40 40 39
4 3 1 1 2 6 12 13 11 7 6 9 8 8 13 14 12 11 11 11 12 11 8 9 11 11 10 8 9 10 10 7 5 3 3 4 4 5 7 7 7 8 8 8 9 11 13 13 13 15 17 21 26 31 33 34 34 35 37 37 35 34 35 36 37 37 38 37 36 37 37 36 37 38 37 37 36 36 36 39 40 41 41 39 38 39
3 3 2 1 2 5 9 8 6 5 7 8 9 2 9 13 12 10 9 9 9 9 6 5 7 11 10 7 8 8 6 6 5 2 3 4 3 2 4 5 6 7 7 6 7 8 9 12 13 13 15 21 28 30 30 31 33 33 32 32 33 35 37 38 38 39 38 37 36 36 36 37 38 38 37 36 36 37 39 41 41 41 40 39 39 41
6 4 3 3 3 4 4 3 4 6 9 13 11 7 7 4 4 7 7 7 6 6 6 6 8 9 7 7 7 6 7 7 4 4 5 5 5 4 3 4 4 4 6 6 7 7 7 7 10 13 18 24 27 27 29 32 33 31 31 33 34 35 37 37 36 36 35 34 35 36 37 38 38 36 36 36 37 39 40 41 41 42 41 40 39 40
11 5 2 2 3 3 3 4 5 7 12 11 5 4 7 6 5 5 6 7 5 4 6 8 9 7 6 8 9 8 7 5 4 4 5 7 7 6 5 5 5 6 6 5 5 7 8 7 7 9 14 20 24 28 30 32 33 32 30 31 32 32 33 33 32 33 34 34 35 37 38 39 38 37 37 37 39 40 40 40 41 42 41 39 38 39
15 10 6 4 4 3 3 5 4 5 6 4 3 8 8 7 10 8 4 5 6 3 3 5 8 8 9 11 11 8 5 6 4 4 6 8 8 8 7 6 5 6 7 7 6 4 5 9 10 8 10 15 20 28 32 31 31 29 27 27 30 30 30 30 32 34 34 35 38 39 40 40 40 38 38 39 41 41 40 41 41 41 40 39 40 41
16 12 8 6 5 4 3 4 3 3 5 4 8 15 15 14 14 6 1 5 6 4 2 3 5 4 8 13 12 7 6 6 3 5 6 7 8 7 8 8 7 7 7 8 9 9 7 5 9 11 11 12 17 23 27 29 31 29 26 26 28 28 27 29 33 35 36 38 41 40 40 40 41 41 41 42 42 41 41 42 41 40 39 40 40 40
13 9 7 6 7 5 3 2 3 4 5 5 11 17 19 19 12 3 5 7 5 4 4 3 5 3 5 9 8 5 5 6 6 4 5 7 7 6 7 8 8 8 8 9 11 13 12 4 5 10 12 14 18 18 17 21 25 25 26 27 26 25 27 33 36 37 39 41 40 38 39 40 42 43 44 44 44 43 43 42 39 38 39 39 39 37
9 5 5 6 6 5 4 2 3 4 4 7 14 18 20 16 6 7 7 6 2 3 3 3 5 4 4 6 6 4 4 4 4 0 4 6 6 7 8 8 8 9 9 9 12 15 14 9 4 6 7 11 15 15 14 16 17 19 22 23 23 26 33 39 40 41 41 40 37 36 39 41 43 45 46 45 44 42 41 41 40 40 40 39 38 35
7 5 4 5 4 2 3 1 3 5 3 9 16 18 15 7 3 5 5 6 3 3 3 4 5 4 6 8 7 6 5 5 4 4 4 6 7 6 8 9 9 11 13 15 17 17 15 12 9 7 4 1 6 12 17 18 17 17 17 16 21 31 36 36 36 37 37 35 33 33 36 38 40 41 41 40 39 38 38 39 39 39 39 38 36 32
4 5 5 5 3 1 2 1 3 6 4 12 16 13 8 5 3 5 7 6 5 5 4 4 4 4 6 9 9 8 7 6 5 5 6 7 8 7 8 9 9 9 11 13 16 18 15 10 9 11 10 7 3 7 16 21 20 17 16 17 24 29 26 23 25 28 29 28 28 30 33 35 37 38 36 35 36 36 35 34 34 35 35 34 32 28
6 4 5 5 3 2 3 4 3 4 5 10 10 6 5 6 7 6 5 4 5 6 5 3 4 4 5 9 10 8 7 6 5 5 6 6 7 7 7 9 9 9 9 9 12 16 15 10 8 12 12 10 7 2 9 17 20 17 17 21 25 24 21 21 21 22 24 25 26 28 30 31 33 34 34 34 34 34 32 32 33 34 35 34 32 28
7 4 3 4 3 2 3 4 2 1 5 6 6 6 7 7 7 8 8 6 5 5 4 3 3 4 5 8 9 8 6 6 5 5 6 5 6 6 6 7 7 7 8 9 12 15 14 11 10 11 11 11 10 7 2 6 12 15 18 24 25 22 22 22 22 22 24 26 26 26 26 26 27 28 29 29 30 30 31 33 34 34 33 32 31 29
9 7 1 4 2 0 0 2 2 1 4 5 5 6 7 6 8 9 9 8 7 7 6 4 4 5 4 5 8 7 5 5 5 5 5 5 5 6 6 7 7 7 7 8 11 13 13 11 12 11 11 12 12 10 8 5 3 6 12 20 23 23 24 24 23 24 26 27 28 29 28 27 27 28 29 30 32 33 35 36 35 32 31 31 31 31
8 9 4 4 4 2 2 3 3 3 2 4 5 6 8 8 7 7 7 8 8 9 9 8 5 6 6 6 7 8 5 5 6 6 5 5 5 5 6 6 7 7 8 8 10 12 10 8 8 9 9 12 15 15 13 10 9 9 8 11 15 20 25 27 27 27 27 28 29 29 30 31 32 32 33 34 36 37 38 37 35 33 32 33 34 33
5 8 6 5 5 4 4 3 2 3 1 3 4 5 7 8 8 8 8 9 9 9 10 10 7 5 6 6 6 7 7 7 6 6 6 5 5 5 5 5 5 6 7 9 10 11 9 7 6 7 7 9 13 17 16 14 13 11 8 8 10 12 17 24 30 32 32 34 35 35 35 36 37 38 41 42 43 41 38 37 37 37 39 42 42 40
7 8 6 6 5 3 3 3 1 2 1 3 4 4 4 5 5 6 8 9 10 9 8 8 7 6 6 6 6 7 9 7 6 6 7 6 6 6 5 5 5 5 7 8 9 9 9 7 7 7 7 8 11 14 15 15 14 13 10 9 10 12 13 16 20 23 26 29 31 31 30 28 26 27 30 34 39 41 40 41 43 42 43 45 46 45
7 7 5 6 6 3 4 4 3 4 3 1 1 2 2 2 2 5 7 8 8 7 7 6 5 6 7 6 5 7 9 6 5 7 8 7 6 7 7 7 7 6 8 10 11 10 9 8 9 9 9 10 12 13 13 14 13 12 12 11 10 11 14 16 16 16 17 18 18 18 18 19 20 20 21 25 30 32 30 32 36 38 38 38 39 42
6 5 4 4 5 4 5 5 4 3 4 4 4 3 3 2 2 6 7 6 4 4 8 6 1 5 6 6 5 7 8 6 5 7 8 7 6 6 7 8 7 7 9 12 11 10 9 9 9 9 10 11 12 11 11 12 12 12 11 10 8 9 10 11 12 13 12 11 12 17 20 23 25 26 27 28 30 30 28 26 25 26 30 33 37 43
Wind_Direction
170 207 219 208 216 207 207 212 218 241 242 236 223 225 244 250 265 256 246 270 215 189 217 203 199 187 177 184 182 180 182 183 182 180 183 186 185 184 184 188 193 199 203 192 187 188 190 193 193 192 194 195 198 200 200 201 202 202 201 202 203 204 205 205 205 206 207 208 210 214 216 219 223 225 228 229 227 227 229 231 233 230 226 226 227 228
174 214 227 207 205 200 207 215 215 234 239 241 231 241 259 242 261 269 256 276 226 176 242 223 205 200 185 184 182 176 180 189 188 183 188 190 188 188 187 191 196 201 198 185 187 188 188 191 193 193 193 194 197 199 200 201 202 202 202 202 203 203 205 206 206 206 206 208 209 212 215 217 220 223 226 226 223 225 230 233 233 230 227 227 228 229
213 227 223 194 187 189 219 225 212 233 239 242 233 235 260 245 268 284 258 263 231 183 238 209 204 226 199 185 182 180 186 193 191 187 189 188 187 189 190 194 196 195 188 187 191 189 189 191 191 192 194 196 198 199 201 202 202 202 202 203 203 203 205 207 207 207 208 210 211 214 216 216 218 222 223 223 222 223 229 232 231 230 230 230 231 232
217 237 207 175 172 191 228 241 226 248 247 239 234 219 247 247 255 277 265 271 238 219 228 188 188 219 201 195 194 193 195 195 195 195 193 190 189 189 191 193 192 189 188 191 193 190 190 190 190 193 196 198 199 199 200 201 201 203 204 204 204 204 205 207 208 209 210 211 213 216 218 218 218 221 222 223 224 226 228 228 228 229 232 233 233 233
225 242 188 165 172 188 217 240 231 244 256 251 240 222 240 243 221 242 280 337 302 286 285 167 163 183 172 189 209 206 205 204 201 198 201 205 201 195 192 192 191 189 189 189 190 191 189 190 192 195 198 197 197 199 200 200 202 203 205 205 204 205 206 207 208 209 210 210 212 215 218 219 219 221 222 223 224 225 226 225 226 229 231 231 232 232
232 230 156 168 191 193 209 234 222 213 244 264 248 228 230 234 229 246 297 351 328 303 299 144 157 264 191 186 204 202 201 210 205 200 205 208 206 203 199 196 196 196 195 191 189 190 188 190 193 195 197 196 197 201 202 202 203 204 205 204 204 205 206 207 208 208 208 208 210 210 211 212 213 216 219 220 220 221 222 224 225 228 229 231 232 231
221 191 159 183 199 201 212 231 220 199 220 256 249 233 221 212 226 245 258 325 277 266 270 167 166 259 227 193 204 197 200 207 202 205 210 206 203 204 203 199 198 199 200 199 195 192 191 191 191 193 195 195 199 203 203 203 204 205 204 203 203 204 205 206 206 206 207 207 209 209 209 210 210 212 217 219 219 220 221 223 224 227 228 230 232 229
178 179 191 198 196 206 215 226 215 184 204 244 249 257 231 195 215 239 226 217 241 262 283 251 163 219 245 207 202 194 202 210 207 210 211 208 208 207 205 202 200 199 197 198 198 195 195 193 192 193 195 196 200 202 201 202 203 204 204 203 203 204 205 205 205 205 206 207 208 209 210 212 213 214 217 218 218 219 220 220 222 224 225 227 229 228
164 181 198 199 202 215 213 216 201 180 218 240 230 260 251 213 218 233 214 219 237 255 273 256 172 204 262 233 199 191 198 210 211 212 210 208 210 209 208 205 202 202 198 196 197 195 195 194 195 196 197 199 201 200 199 200 202 202 203 203 203 203 204 205 204 205 206 208 209 209 210 212 215 217 218 217 217 217 217 218 219 221 223 227 230 229
175 191 194 194 209 219 207 207 193 195 226 238 206 261 277 258 232 218 209 218 214 216 247 246 193 198 265 255 186 184 198 210 211 212 211 209 210 209 208 206 204 202 200 200 199 198 197 195 197 198 198 200 201 200 200 201 200 200 200 201 201 202 204 204 204 205 207 208 208 208 210 212 215 217 217 217 218 217 217 219 221 224 227 230 231 229
217 200 187 194 212 206 187 198 205 212 225 213 164 249 276 281 282 280 201 163 200 236 237 237 211 186 250 259 184 184 200 205 206 211 214 213 214 212 209 208 204 200 201 202 201 202 202 200 200 199 198 200 201 201 201 201 200 199 199 199 200 203 203 204 204 205 207 208 209 210 211 212 214 214 214 215 216 218 218 220 223 227 229 230 230 229
234 228 188 207 210 188 170 199 215 217 218 210 176 204 250 279 294 294 292 123 219 245 230 230 220 190 230 255 209 202 200 198 202 206 208 211 214 214 211 208 205 201 200 199 201 203 202 203 203 201 201 202 200 200 201 201 201 200 199 199 200 202 203 203 204 204 206 208 210 211 212 214 215 214 213 214 216 217 217 220 222 225 227 226 227 228
222 227 224 245 210 184 174 197 220 218 207 204 198 176 190 249 259 238 243 210 231 249 226 208 207 205 236 240 211 208 201 198 204 206 207 209 211 212 211 208 204 201 200 199 200 201 199 201 202 200 202 202 200 200 201 201 201 201 200 200 200 201 202 202 203 204 206 208 210 211 212 214 215 215 214 214 216 218 219 220 221 222 222 222 223 224
225 243 231 234 229 189 183 186 209 218 198 196 198 180 185 208 216 219 232 251 248 257 246 194 184 221 265 247 208 204 203 201 202 206 210 210 210 212 210 205 201 199 200 200 200 200 199 200 200 200 201 200 200 201 201 200 200 200 201 201 201 203 202 202 202 203 205 208 210 211 212 214 215 215 215 215 216 218 219 220 220 221 221 220 221 221
208 242 220 213 204 175 193 203 198 183 179 203 192 168 200 210 195 203 210 227 247 259 263 193 172 205 230 234 204 196 205 206 201 205 209 211 213 214 212 203 199 201 200 201 201 201 202 201 199 200 200 201 201 201 200 200 200 199 200 201 202 203 202 202 203 204 205 208 210 211 212 213 214 216 216 215 216 217 219 220 221 222 222 221 222 222
206 238 232 212 194 171 195 211 186 163 191 209 159 165 213 200 168 223 218 192 204 264 257 207 204 219 220 253 229 198 204 207 207 210 209 212 214 212 211 201 200 205 202 200 202 203 204 202 200 200 200 202 203 201 200 201 200 199 200 201 202 203 203 203 204 205 207 209 210 211 212 213 215 216 215 215 216 217 218 220 220 222 223 223 224 223
192 239 229 182 203 199 200 198 178 179 192 173 162 195 205 160 173 236 248 217 193 262 253 203 230 270 282 280 266 204 206 210 211 214 213 216 213 203 203 200 201 205 202 201 203 203 203 201 201 202 202 202 202 201 201 202 201 200 200 200 201 203 203 204 205 207 208 209 210 211 212 213 214 215 215 215 215 216 217 219 221 222 223 224 224 222
179 251 236 175 212 225 202 192 194 189 172 152 193 198 145 127 206 213 233 246 239 250 265 209 226 248 232 257 261 186 206 217 215 216 216 219 211 198 202 203 203 204 203 204 204 203 203 201 202 203 203 204 203 201 202 203 202 201 200 200 200 201 203 204 206 207 209 210 210 211 211 213 214 215 215 216 216 216 215 216 219 221 223 224 223 221
176 252 265 196 206 221 189 189 226 221 202 205 199 171 144 184 214 186 190 226 221 240 276 273 245 233 210 231 219 186 208 217 216 217 219 222 212 199 204 205 204 206 205 205 203 203 204 203 203 203 204 206 204 204 205 204 202 201 201 202 201 202 204 205 205 207 209 210 211 211 212 212 214 215 215 215 215 215 215 215 217 219 222 223 223 222
173 217 261 225 198 201 178 181 210 227 230 230 181 168 180 184 196 192 189 196 195 229 261 277 265 236 213 200 182 190 207 209 211 212 214 222 215 205 206 203 202 205 205 204 202 203 204 204 204 204 204 205 204 206 206 202 200 201 202 202 202 204 204 205 206 207 209 210 211 211 211 213 214 215 215 215 214 215 216 217 217 219 221 223 224 224
226 198 238 262 213 200 191 184 197 206 218 220 198 200 206 188 184 202 204 181 172 198 215 230 257 249 230 193 181 190 204 205 205 206 212 218 213 209 208 205 203 204 203 203 202 202 204 205 205 204 204 205 205 205 203 199 200 201 201 201 202 203 203 204 207 208 209 210 211 211 211 212 214 214 214 213 214 215 217 217 218 219 221 222 224 224
289 213 223 241 228 208 205 195 196 203 207 206 206 207 204 191 146 181 222 218 180 196 191 198 249 260 244 191 185 190 201 207 203 202 211 219 214 211 210 208 208 204 202 202 202 203 204 204 205 203 203 204 204 202 200 199 200 199 199 200 201 201 202 205 207 208 209 209 209 210 211 212 213 213 213 212 213 216 217 217 217 218 219 221 223 224
332 271 239 243 236 217 218 212 202 207 210 208 213 206 195 185 152 182 220 219 203 227 164 155 253 267 240 190 185 189 199 209 208 200 207 219 216 212 212 213 211 207 204 201 201 204 205 204 204 200 199 199 199 200 199 198 198 198 199 199 199 200 203 206 207 207 207 208 209 209 210 211 212 212 212 211 213 215 216 216 216 215 217 219 221 222
343 315 281 292 279 257 253 259 246 216 205 208 217 204 192 194 188 200 207 180 206 222 135 194 252 264 258 208 195 195 197 203 208 200 209 223 222 215 218 219 214 210 210 205 202 205 206 204 202 198 197 197 198 199 197 197 198 199 199 198 198 202 205 206 207 207 206 207 208 208 209 211 212 211 211 210 212 215 215 214 213 213 215 217 219 220
339 329 6 325 272 259 266 271 268 238 207 219 222 205 204 201 194 204 178 139 223 208 165 197 238 243 271 269 231 220 207 207 212 201 205 218 220 219 221 220 216 213 214 210 205 206 205 201 197 196 196 196 197 197 196 196 197 197 197 198 200 203 205 205 206 205 205 206 206 207 209 210 211 211 211 211 212 214 214 213 211 211 213 215 216 218
252 276 280 224 227 234 236 232 233 217 198 233 230 208 207 204 199 201 185 185 230 212 175 198 232 252 282 313 263 235 211 211 223 208 203 217 221 222 220 218 215 211 211 211 208 208 205 199 195 194 195 195 196 197 196 196 196 197 198 199 200 202 203 204 204 204 204 205 205 206 208 210 210 211 211 211 213 214 213 212 210 210 212 213 214 215
233 266 271 253 243 246 262 274 279 278 224 216 218 214 213 211 206 202 205 207 201 192 210 212 193 212 248 228 240 240 216 211 226 212 201 217 226 227 225 221 216 211 211 211 210 210 205 197 195 194 193 195 195 195 196 195 196 197 197 199 201 202 202 202 202 202 203 204 204 206 208 209 211 211 211 212 213 214 213 211 210 210 210 212 212 213
14 319 286 286 287 282 288 287 289 293 270 232 214 212 219 219 210 209 217 203 155 177 232 218 156 174 231 227 227 238 227 221 234 225 210 215 224 227 230 228 220 216 215 212 211 211 205 200 198 195 194 195 194 194 195 195 196 197 197 199 200 200 201 201 201 201 202 203 204 205 208 210 210 211 211 212 212 213 213 212 211 210 210 209 210 211
1 256 291 320 312 306 305 296 289 291 281 257 224 211 214 219 216 218 222 194 164 203 230 203 169 185 223 232 228 234 230 227 236 236 232 244 234 221 223 226 221 218 216 211 207 205 204 204 200 195 195 193 191 191 192 193 196 196 198 199 198 199 201 199 198 200 201 203 205 206 207 208 209 210 210 210 211 212 212 211 210 210 209 209 209 210
299 264 320 329 315 309 308 299 299 309 302 280 249 219 209 215 218 222 223 202 194 220 227 196 189 200 211 217 219 226 227 229 248 260 270 273 248 220 215 220 222 221 217 211 205 200 202 204 202 198 195 190 188 190 190 191 193 194 196 197 198 200 200 198 198 200 201 204 206 206 206 206 207 208 208 208 210 211 211 210 210 209 209 209 209 210
86 305 320 328 317 306 305 311 320 325 319 297 272 241 217 215 217 221 222 206 203 225 226 197 195 216 236 227 221 233 239 250 289 253 242 252 245 224 221 224 224 224 220 213 204 198 198 200 201 197 192 190 192 191 190 191 192 194 195 196 197 199 198 196 198 200 202 206 207 205 203 204 205 205 206 207 209 210 210 209 208 209 209 209 209 209
124 294 315 333 322 297 308 330 326 321 318 298 267 247 228 217 215 221 219 200 194 207 216 217 211 224 246 235 232 257 257 244 250 243 239 252 248 225 224 231 231 227 221 212 202 196 197 198 197 193 192 194 194 192 193 192 191 192 194 196 198 198 196 195 198 201 204 207 206 202 202 202 202 203 205 206 207 207 208 207 207 209 210 209 209 208
172 198 315 333 317 291 303 317 319 321 314 277 247 233 230 230 224 222 221 212 200 189 197 222 223 216 221 209 200 242 244 231 234 240 244 255 251 226 223 240 252 249 239 224 207 197 196 197 196 193 194 194 192 193 194 192 189 192 195 196 197 195 192 195 199 202 206 207 204 202 202 200 200 202 204 205 205 205 204 205 207 209 210 210 209 207
176 172 227 309 289 288 300 310 316 305 258 260 261 210 210 226 225 217 222 223 211 199 206 229 225 217 216 192 181 212 227 218 210 223 261 272 259 229 224 234 249 263 268 256 233 211 199 197 198 198 197 194 193 194 194 192 192 195 197 196 194 191 191 196 200 203 207 206 203 202 200 198 199 202 204 204 203 201 202 205 208 210 210 210 208 206
210 186 219 229 210 274 299 315 312 256 227 279 316 286 215 221 206 198 222 231 219 218 224 230 227 224 216 193 188 197 182 157 154 101 22 353 323 266 244 240 233 242 256 258 251 236 212 198 194 194 196 196 195 193 191 193 196 196 195 193 191 191 194 197 200 204 206 204 202 201 199 198 199 201 202 202 201 200 203 205 207 209 209 208 207 208
222 199 203 215 222 262 282 273 252 257 284 302 313 344 349 315 190 183 221 247 240 214 190 187 212 221 203 174 164 154 152 152 132 59 30 8 1 9 352 315 285 262 251 238 231 231 228 219 208 199 196 194 191 189 189 193 195 194 193 194 194 195 198 199 201 205 205 203 201 200 198 198 199 200 200 200 200 202 204 205 207 209 208 208 208 209
214 203 178 207 225 224 233 253 258 279 301 307 311 0 359 336 292 264 247 250 248 205 183 187 194 191 164 150 149 155 160 134 69 12 357 4 359 358 5 357 347 335 313 286 250 221 208 213 229 224 207 195 188 188 191 194 194 193 193 195 196 198 199 200 203 205 204 203 202 200 200 198 198 198 199 198 200 203 205 206 208 208 207 206 207 209
206 196 176 189 217 212 231 265 279 281 277 269 317 326 324 305 293 291 268 261 264 241 194 182 176 166 150 148 154 159 135 90 65 309 324 353 349 349 2 360 358 2 353 347 342 313 225 206 207 212 209 203 197 194 193 192 191 192 193 194 196 198 198 201 205 206 204 204 203 202 201 199 198 198 198 199 202 204 204 206 208 208 207 206 207 209
212 196 177 190 229 228 224 248 258 260 249 261 331 332 329 316 301 290 197 262 276 312 15 126 147 160 151 152 159 150 112 111 181 259 310 342 340 348 359 353 356 6 3 8 10 351 322 255 206 191 183 195 209 206 198 192 189 188 192 195 195 196 198 203 207 207 206 207 207 205 201 199 198 198 199 202 203 204 205 207 208 207 207 207 209 212
219 198 170 190 226 219 196 235 251 252 263 317 344 335 323 313 301 221 189 242 269 334 357 98 125 143 145 144 145 120 106 144 184 246 315 336 337 349 6 1 357 356 354 4 9 355 344 341 182 182 182 194 209 213 208 202 195 191 193 194 192 194 201 206 208 208 209 211 209 206 202 200 199 200 202 203 204 204 205 206 206 206 206 207 210 212
199 178 154 172 201 199 176 210 270 270 281 338 345 330 318 310 279 179 203 248 273 10 351 77 117 144 136 122 119 100 96 128 142 83 342 355 358 0 9 7 357 357 357 0 10 8 2 10 76 151 187 204 209 211 210 206 205 205 201 194 191 198 205 208 208 209 211 212 210 206 204 203 203 203 205 205 204 203 204 204 204 203 203 206 209 210
179 152 137 158 175 180 159 174 292 274 296 356 343 325 320 317 216 199 266 293 334 25 11 56 91 113 104 96 100 105 103 92 76 56 30 28 28 19 13 11 6 6 2 359 7 14 9 8 32 56 62 134 197 205 200 193 197 208 207 199 203 208 209 209 210 211 212 212 210 209 207 206 206 207 207 207 204 203 204 204 203 202 202 204 206 206
209 166 152 160 160 111 119 134 271 253 298 352 342 332 350 9 305 288 302 311 345 6 3 30 50 67 92 95 94 97 99 87 63 49 43 37 34 30 25 23 20 14 8 1 0 4 6 6 12 16 21 36 82 187 192 188 192 199 201 207 217 219 217 217 217 216 216 215 213 212 211 210 210 209 208 207 205 203 204 203 201 201 202 202 201 198
259 208 164 162 158 139 168 193 218 247 304 336 335 331 345 330 310 316 332 336 349 349 339 1 31 42 86 102 102 95 88 79 59 45 44 37 30 31 30 30 28 20 13 8 359 0 6 8 359 360 7 17 25 67 187 190 192 194 199 211 219 221 220 221 219 216 216 216 216 216 215 213 212 210 208 206 204 202 202 200 199 200 200 199 195 188
265 250 154 157 176 159 184 199 192 312 313 318 321 314 313 322 343 2 12 10 359 343 331 345 31 43 72 98 101 92 81 79 66 51 48 38 25 24 25 26 31 29 19 15 10 6 6 1 353 353 359 6 11 10 340 207 194 194 204 212 214 214 214 215 213 211 211 212 213 215 215 213 212 210 208 205 203 202 201 200 198 197 196 193 187 179
276 278 183 139 157 144 178 178 140 57 326 319 326 321 319 343 10 13 20 22 4 345 345 358 22 25 30 76 93 90 92 102 94 78 72 61 38 28 24 22 24 24 22 21 18 15 12 4 355 349 348 355 2 2 352 333 278 242 226 215 209 208 208 206 205 205 205 205 207 208 207 205 203 203 203 202 201 203 203 202 198 194 188 184 181 177
266 267 251 143 142 165 180 175 149 113 351 327 342 344 340 352 10 19 29 29 9 353 351 351 5 28 30 44 72 83 85 86 89 88 81 72 60 44 34 31 24 17 18 19 16 19 22 18 7 359 347 345 349 350 345 334 324 312 272 226 211 207 203 198 196 197 197 199 201 201 199 198 197 197 196 197 199 201 202 201 196 189 184 182 180 178
263 262 238 164 148 157 154 154 135 110 61 335 0 9 346 344 1 15 24 28 19 5 352 342 348 28 46 38 53 75 69 56 65 76 70 64 64 57 47 41 31 22 20 18 16 20 24 21 19 18 5 349 346 344 341 338 335 325 288 249 240 231 214 201 195 194 195 197 197 196 196 198 198 196 194 192 193 195 196 195 193 190 189 189 185 183
276 273 233 166 149 149 143 143 121 114 113 337 9 30 345 330 358 23 31 33 20 358 342 336 342 18 52 45 43 69 70 54 45 58 60 52 44 41 40 39 38 36 28 21 22 30 30 19 16 22 21 8 357 350 347 346 345 341 325 294 276 270 259 236 216 206 202 200 197 195 195 196 197 196 193 188 187 188 190 192 193 195 196 195 193 191
262 263 229 171 164 169 162 167 169 150 148 168 3 358 306 299 48 62 56 50 29 344 313 308 339 27 50 50 51 72 76 63 46 55 59 50 37 30 27 27 30 31 24 19 24 33 34 26 21 22 17 10 5 3 360 355 351 349 343 326 307 296 288 276 261 244 227 213 202 193 185 179 179 183 183 181 179 177 178 185 192 195 196 195 194 191
254 268 264 207 181 164 155 162 163 142 140 160 187 225 255 265 89 85 80 75 58 306 281 272 338 65 63 57 59 77 84 74 59 62 62 49 34 32 32 31 32 27 19 18 19 19 18 20 26 26 17 10 6 3 358 354 353 353 351 344 332 321 306 290 278 266 250 227 206 192 181 174 172 172 172 175 176 171 165 167 177 188 192 191 189 186